Flight Track Log - Related Links

Times and Time Zones

All times are in EDT time to prevent confusion due to time zone crossing. See the N446ND flight status page for this flight to view local times or setup timezone preferences in your user account.

Time Position Orientation Groundspeed Altitude Reporting Facility
EDT Latitude Longitude Course Direction KTS MPH feet Rate Location/Type
Sat 05:58:34 PM 28.9975 -80.9839 169° South 102 117 3,500  Level Jacksonville Center
Sat 05:59:35 PM 28.9683 -80.9772 169° South 110 127 3,500  Level Jacksonville Center
Sat 06:01:36 PM 28.9000 -80.9667 172° South 108 124 3,500 -33 Level Orlando TRACON
Sat 06:02:36 PM 28.8833 -80.9500 139° Southeast 111 128 3,400  Descending Orlando TRACON
Sat 06:03:30 PM 28.8500 -80.9500 180° South 108 124 3,500 50 Climbing Orlando TRACON
Sat 06:04:37 PM 28.8333 -80.9167 120° Southeast 112 129 3,500  Level Orlando TRACON
Sat 06:05:42 PM 28.8000 -80.9000 156° South 117 135 3,500  Level Orlando TRACON
Sat 06:06:42 PM 28.7667 -80.9000 180° South 113 130 3,500  Level Orlando TRACON
Sat 06:07:43 PM 28.7333 -80.9000 180° South 113 130 3,500  Level Orlando TRACON
Sat 06:09:00 PM 28.6859 -80.8786 158° South  Level FlightAware Approximate
Sat 06:10:55 PM 28.6500 -80.8500 158° South 103 119 3,500  Level Orlando TRACON
Sat 06:11:43 PM 28.6167 -80.8500 180° South 105 121 3,500 -56 Level Orlando TRACON
Sat 06:12:43 PM 28.6000 -80.8333 139° Southeast 109 125 3,400  Descending Orlando TRACON
Sat 06:13:49 PM 28.5667 -80.8333 180° South 100 115 3,500 48 Climbing Orlando TRACON
Sat 06:14:49 PM 28.5333 -80.8167 156° South 107 123 3,500  Level Orlando TRACON
Sat 06:15:49 PM 28.5000 -80.8167 180° South 107 123 3,500  Level Orlando TRACON
Sat 06:16:00 PM 28.4275 -80.7619 158° South  Level FlightAware Approximate
Sat 06:16:44 PM 28.4833 -80.8000 139° Southeast 114 131 3,500  Level Orlando TRACON
Sat 06:17:43 PM 28.4500 -80.7833 156° South 113 130 3,500  Level Orlando TRACON
Sat 06:18:43 PM 28.4167 -80.7667 156° South 112 129 3,500  Level Orlando TRACON
Sat 06:19:44 PM 28.4000 -80.7500 139° Southeast 113 130 3,500  Level Orlando TRACON
Sat 06:20:43 PM 28.3667 -80.7500 180° South 116 133 3,500 50 Level Orlando TRACON
Sat 06:21:44 PM 28.3333 -80.7333 156° South 110 127 3,600  Climbing Orlando TRACON
Sat 06:22:44 PM 28.3000 -80.7167 156° South 113 130 3,500 -48 Descending Orlando TRACON
Sat 06:23:50 PM 28.2667 -80.7000 156° South 120 138 3,500  Level Orlando TRACON
Sat 06:25:00 PM 28.2239 -80.6796 157° South  Level FlightAware Approximate
Sat 06:26:44 PM 28.1833 -80.6667 157° South 116 133 3,500  Level Orlando TRACON
Sat 06:28:50 PM 28.1300 -80.6378 154° Southeast 107 123 3,500  Level Miami Center
Sat 06:29:50 PM 28.1078 -80.6086 131° Southeast 107 123 3,500  Level Miami Center
Sat 06:30:50 PM 28.0917 -80.5869 130° Southeast 102 117 3,500  Level Miami Center
Sat 06:31:50 PM 28.0692 -80.5675 143° Southeast 102 117 3,500 50 Level Miami Center
Sat 06:32:00 PM 27.9676 -80.5575 157° South  Level FlightAware Approximate
Sat 06:32:50 PM 28.0403 -80.5478 149° Southeast 102 117 3,600  Level Miami Center
Sat 06:33:50 PM 28.0158 -80.5306 148° Southeast 102 117 3,500 -50 Descending Miami Center
Sat 06:34:50 PM 27.9933 -80.5086 139° Southeast 102 117 3,500  Level Miami Center
Sat 06:35:50 PM 27.9708 -80.4914 146° Southeast 102 117 3,500 50 Level Miami Center
Sat 06:36:50 PM 27.9442 -80.4717 147° Southeast 102 117 3,600  Climbing Miami Center
Sat 06:37:50 PM 27.9175 -80.4544 150° Southeast 102 117 3,500 -50 Descending Miami Center
Sat 06:38:50 PM 27.8908 -80.4347 147° Southeast 107 123 3,500  Level Miami Center
Sat 06:39:50 PM 27.8642 -80.4222 157° South 107 123 3,500  Level Miami Center
Sat 06:40:50 PM 27.8372 -80.4097 158° South 112 129 3,500  Level Miami Center
Sat 06:41:50 PM 27.8061 -80.3992 163° South 107 123 3,500  Level Miami Center
Sat 06:42:50 PM 27.7769 -80.3961 175° South 107 123 3,500 50 Level Miami Center
Sat 06:43:50 PM 27.7481 -80.3858 163° South 107 123 3,600 -50 Climbing Miami Center
Sat 06:44:50 PM 27.7211 -80.3778 165° South 107 123 3,400 -400 Descending Miami Center
Sat 06:45:50 PM 27.6942 -80.3678 162° South 107 123 2,800 -600 Descending Miami Center
Sat 06:47:00 PM 27.6507 -80.3689 160° South  Level Estimated

Login

Don't have an account? Register now (free) for customized features, flight alerts, and more!